Погода во Вьетчи

Вьетнам     21°18′17″N   105°24′36″E
темп.,
°C
ветер,
м/с
пор.,
м/с
влажн.,
%
обл.,
%
осадки,
мм/ч
давл.,
гПа
погр.,
м
17 июня, чт
чт1701:00+28вюв478232 0.0 1003330
04:00+27всв24914 0.6 1003118
07:00+29св118356 0.6 1004335
10:00+33зюз1260100 0.0 10041067
13:00+36ю1447100 0.0 10021875
16:00+37юв234699 0.0 10001309
19:00+33юв335922 0.0 100156
22:00+30вюв6107351 0.0 1004450
18 июня, пт
пт1801:00+29вюв377956 0.1 1003305
04:00+28всв128687 0.0 100342
07:00+29сз118127 0.0 1004335
10:00+34з3554100 0.0 10041319
13:00+38з354095 0.0 10022184
16:00+38з584099 0.0 10001855
19:00+33юз24536 0.0 100071
22:00+30вюв46704 0.0 1002124
19 июня, сб
сб1901:00+29вюв23765 0.0 100165
04:00+28ююв11775 0.0 100117
07:00+30зсз12695 0.0 1002260
10:00+34з345023 0.0 10021198
13:00+38з343931 0.0 10001922
16:00+38зюз58375 0.0 9971950
19:00+34юз6134784 0.0 998472
22:00+32юз4951100 0.0 999264
20 июня, вс
вс2001:00+29зсз246678 0.0 99885
04:00+29зсз126613 0.0 99819
07:00+30зсз35675 0.0 999250
10:00+35з34456 0.0 10001144
13:00+38з343782 0.0 9971968
16:00+39зюз56368 0.0 9952049
19:00+34зюз61247100 0.0 996358
22:00+32з3750100 0.0 997158
21 июня, пн
пн2101:00+30зсз235999 0.0 99651
04:00+29сз226599 0.0 99623
07:00+30зсз3465100 0.0 997199
10:00+36зсз3445100 0.0 9971027
13:00+39зсз3336100 0.0 9951905
16:00+39ссз033497 0.0 9942299
19:00+35ююз224898 0.0 99523
22:00+33в3455100 0.0 99799